Regional Weather Roundup
Issued by NWS Grand Forks, ND

Home | Current Version | Previous Version | Graphics & Text | Print | Product List | Glossary On
Versions: 1 2 3 4 5 6 7 8 9 10 11 12 13 14 15 16 17 18 19 20 21 22 23 24 25 26 27 28 29 30 31 32 33 34 35 36 37 38 39 40 41 42 43 44 45 46 47 48 49 50
000
ASUS43 KFGF 250610
RWRFGF
PRAIRIE TO PINES  WEATHER ROUNDUP
NATIONAL WEATHER SERVICE EASTERN NORTH DAKOTA/GRAND FORKS ND
1200 AM CST THU DEC 25 2014

 **SATELLITE DATA USED TO AUGMENT SKY COVER AT AUTOMATED STATIONS**
 *****  WEATHER ACROSS EASTERN NORTH DAKOTA  *****

CITY           SKY/WX    TMP DP  RH WIND       PRES   REMARKS
GRAND FORKS    CLOUDY    29  27  92 SW6       29.43R WCI  23
6HR MIN TEMP:  27; 6HR MAX TEMP:  30; 6HR PCP: TRACE;

GRAND FRKS AFB MOCLDY    26  26  99 W7        29.44R WCI  18
GRAND FRKS NWS   N/A     30 N/A N/A SW7         N/A  WCI  23
DEVILS LAKE    PTCLDY    21  18  86 NW10      29.42S WCI  10
6HR MIN TEMP:  21; 6HR MAX TEMP:  28;

FARGO          CLOUDY    30  27  88 SW10      29.47S WCI  21
WAHPETON ARPT  CLOUDY    30  27  86 S8        29.50S WCI  23
$$

 ***** WEATHER ACROSS CENTRAL AND WESTERN NORTH DAKOTA  *****

CITY           SKY/WX    TMP DP  RH WIND       PRES   REMARKS
BISMARCK       MOCLDY    29  25  85 W5        29.49R WCI  24
6HR MIN TEMP:  25; 6HR MAX TEMP:  32;

MINOT          CLEAR     27  21  78 W16       29.47R WCI  15
6HR MIN TEMP:  27; 6HR MAX TEMP:  32;

JAMESTOWN      MOCLDY    29  26  89 W8        29.44R WCI  21
6HR MIN TEMP:  27; 6HR MAX TEMP:  31;

MINOT AFB      PTCLDY    24  24  99 NW13      29.47R WCI  12
GARRISON         N/A     25  21  85 W10       29.48R WCI  15
WILLISTON      PTCLDY    22  18  85 CALM      29.53R
6HR MIN TEMP:  20; 6HR MAX TEMP:  30;

DICKINSON      CLOUDY    28  25  88 NW6       29.47R WCI  22
6HR MIN TEMP:  28; 6HR MAX TEMP:  35;

HETTINGER      CLOUDY    33  29  85 N8        29.48S
6HR MIN TEMP:  33; 6HR MAX TEMP:  35; 6HR PCP: TRACE;

$$

 *****  OTHER AIRPORT OBSERVATIONS IN OUR AREA  *****

CITY           SKY/WX    TMP DP  RH WIND       PRES   REMARKS
WALHALLA       NOT AVBL
GRAFTON AIRPOR NOT AVBL
VALLEY CITY AR FAIR      27  27 100 SW10      29.45R WCI  17
CANDO          FAIR      18  16  93 NW7       29.44R WCI   8
CAVALIER APRT  CLOUDY    28  27  93 NW12      29.42R WCI  18
GWINNER        CLOUDY    30  32 100 CALM      29.49S
SHEYENNE NWR     N/A     29  26  90 W8        29.95S WCI  21
ROLLA          CLOUDY    23  23 100 NW12G18   29.42S WCI  12
 ***** THE ABOVE OBSERVATIONS ARE NON NWS ARE NOT QUALITY
       CONTROLLED AND MAY MIS-REPORT RAIN FOR SNOW...
$$

  *****  WEATHER ACROSS NORTHERN MINNESOTA  *****

CITY           SKY/WX    TMP DP  RH WIND       PRES   REMARKS
FLAG ISLAND    CLOUDY    28  27  93 SW10      29.39F WCI  19
WARROAD        CLOUDY    28  25  86 SW7       29.41S FOG     WCI  21
ROSEAU         CLOUDY    28  25  86 SW8       29.41S HAZE    WCI  20
HALLOCK        CLOUDY    28  27  93 SW9       29.40S FOG     WCI  20
THF RVR FALLS  CLOUDY    28  27  93 SW12      29.43R WCI  18
6HR MIN TEMP:  27; 6HR MAX TEMP:  28;

BAUDETTE       CLOUDY    29  25  85 SW10      29.41S WCI  20
6HR MIN TEMP:  29; 6HR MAX TEMP:  30; 6HR PCP: TRACE;

WASKISH        CLOUDY    30  28  93 CALM      29.42F
CROOKSTON      CLOUDY    28  28 100 SW9       29.44F WCI  20
STEPHEN NDAWN    N/A     28  28 100 SW8         N/A  WCI  20
GREENBUSH NDAW   N/A     28  27  93 S8          N/A  WCI  20
$$
  *****  WEATHER ACROSS CENTRAL AND WEST MINNESOTA  *****

CITY           SKY/WX    TMP DP  RH WIND       PRES   REMARKS
FOSSTON        CLOUDY    27  25  93 SW17      29.44R WCI  14
BEMIDJI        CLOUDY    28  25  86 SW5       29.43S WCI  23
PARK RAPIDS    CLOUDY    29  26  89 SW10      29.45F WCI  20
6HR MIN TEMP:  28; 6HR MAX TEMP:  30;

ELBOW LAKE     CLOUDY    28  26  96 S15       29.50S WCI  16
6HR MIN TEMP:  27; 6HR MAX TEMP:  28;

WADENA         CLOUDY    28  27  93 S9        29.48R WCI  20
DETROIT LAKES  CLOUDY    30  28  93 SW8       29.47S WCI  23
MOORHEAD       CLOUDY    30  30 100 S9        29.49R WCI  22
FERGUS FALLS   CLOUDY    28  27  93 S9        29.53R WCI  20
MORRIS MN      CLOUDY    28  27  93 S13       29.51S WCI  18
STAPLES        CLOUDY    28  27  93 S8        29.49S WCI  20
$$
  *****  WEATHER ELSEWHERE ACROSS MINNESOTA  *****

CITY           SKY/WX    TMP DP  RH WIND       PRES   REMARKS
DULUTH         CLOUDY    32  28  85 W14       29.48R WCI  22
6HR MIN TEMP:  31; 6HR MAX TEMP:  32; 6HR PCP: TRACE;

INTRNTL FALLS  CLOUDY    31  29  92 SW6       29.42S
6HR MIN TEMP:  30; 6HR MAX TEMP:  32; 6HR PCP:  0.03;

ELY            LGT SNOW  30  28  93 SW5       29.44S
CLOQUET        CLOUDY    32  28  86 SW8       29.49S WCI  25
WHEATON        CLOUDY    28  25  86 S9        29.53R WCI  20
BRAINERD       CLOUDY    29  27  92 SW10      29.50F WCI  20
6HR MIN TEMP:  29; 6HR MAX TEMP:  32;

HIBBING        CLOUDY    32  27  81 SW6       29.46S
6HR MIN TEMP:  32; 6HR MAX TEMP:  33; 6HR PCP: TRACE;

ALEXANDRIA     CLOUDY    28  26  92 S13       29.51S WCI  17
6HR MIN TEMP:  28; 6HR MAX TEMP:  28;

SAINT CLOUD    CLOUDY    33  27  78 S15       29.55S WCI  23
6HR MIN TEMP:  33; 6HR MAX TEMP:  34;

MINNEAPOLIS    CLOUDY    31  27  85 SW9       29.59F WCI  23
6HR MIN TEMP:  31; 6HR MAX TEMP:  34;

$$

  *****  WEATHER ACROSS SOUTH DAKOTA  *****

CITY           SKY/WX    TMP DP  RH WIND       PRES   REMARKS
SIOUX FALLS    CLOUDY    26  24  92 S9        29.55F WCI  17
6HR MIN TEMP:  25; 6HR MAX TEMP:  27;

BROOKINGS      NOT AVBL
WATERTOWN      MOCLDY    26  23  88 S8        29.50R WCI  18
6HR MIN TEMP:  24; 6HR MAX TEMP:  26;

HURON          CLOUDY    25  23  92 S7        29.51S WCI  17
6HR MIN TEMP:  25; 6HR MAX TEMP:  27;

SISSETON         N/A     32  25  75 CALM      29.49R
ABERDEEN       CLOUDY    28  25  88 S6        29.51R WCI  22
6HR MIN TEMP:  27; 6HR MAX TEMP:  28; 6HR PCP: TRACE;

MITCHELL       CLEAR     26  23  88 SE8       29.52S WCI  18
PIERRE         CLOUDY    25  23  92 NE3       29.46F
6HR MIN TEMP:  21; 6HR MAX TEMP:  27;

MOBRIDGE       CLOUDY    29  25  85 CALM      29.47R
RAPID CITY     CLOUDY    34  27  75 N16       29.41R WCI  24
6HR MIN TEMP:  31; 6HR MAX TEMP:  39;

$$

  *****  SOME WEATHER IN NEARBY STATES *****

CITY           SKY/WX    TMP DP  RH WIND       PRES   REMARKS
GLASGOW MT     MOCLDY    27  21  78 N12       29.58R WCI  17
6HR MIN TEMP:  27; 6HR MAX TEMP:  33;

GREAT FALLS MT LGT SNOW  28  27  96 NE23      29.62R VSB 1   WCI  14
6HR MIN TEMP:  28; 6HR MAX TEMP:  31; 6HR PCP:  0.22;

CHEYENNE WY    CLOUDY    37  18  46 W13       29.46F
6HR MIN TEMP:  34; 6HR MAX TEMP:  41;

SCOTTSBLUFF NE CLOUDY    37  25  61 S7        29.45F
6HR MIN TEMP:  31; 6HR MAX TEMP:  42;

OMAHA NE       CLEAR     29  27  92 S13       29.68F WCI  19
6HR MIN TEMP:  29; 6HR MAX TEMP:  31;

DES MOINES IA  CLOUDY    32  27  81 SW16      29.74S WCI  21
6HR MIN TEMP:  32; 6HR MAX TEMP:  34; 6HR PCP: TRACE;

DAVENPORT IA   CLOUDY    33  29  85 W12       29.74R WCI  24
6HR MIN TEMP:  33; 6HR MAX TEMP:  36;

CHICAGO IL     CLOUDY    36  31  82 W15       29.63R
6HR MIN TEMP:  36; 6HR MAX TEMP:  37; 6HR PCP: TRACE;

EAU CLAIRE WI  CLOUDY    33  29  85 SW9       29.59R
6HR MIN TEMP:  33; 6HR MAX TEMP:  35;

LA CROSSE WI   CLOUDY    35  29  78 W13       29.63S
6HR MIN TEMP:  35; 6HR MAX TEMP:  37;

$$

  *****  SOME NATIONAL WEATHER *****

CITY           SKY/WX    TMP DP  RH WIND       PRES   REMARKS
LA GUARDIA NY  CLOUDY    53  52  96 CALM      29.52F FOG
6HR MIN TEMP:  52; 6HR MAX TEMP:  55;

RALEIGH NC     LGT RAIN  64  60  87 SW12      29.70S
6HR MIN TEMP:  64; 6HR MAX TEMP:  65; 6HR PCP:  0.01;

ATLANTA GA     CLOUDY    47  38  71 W16G22    29.93R
6HR MIN TEMP:  47; 6HR MAX TEMP:  51;

NEW ORLEANS LA PTCLDY    44  35  70 W9        30.15R
6HR MIN TEMP:  44; 6HR MAX TEMP:  49;

OKLAHOMA CITY  CLEAR     31  23  72 S8        29.88S WCI  23
6HR MIN TEMP:  30; 6HR MAX TEMP:  41;

ALBUQUERQUE NM MOCLDY    33  10  38 SE9       29.89F
6HR MIN TEMP:  30; 6HR MAX TEMP:  39;

SALT LAKE CITY CLOUDY    47  25  42 S25G36    29.39S
6HR MIN TEMP:  42; 6HR MAX TEMP:  48;



USA.gov is the U.S. government's official web portal to all federal, state and local government web resources and services.